Flag for France Weather past 2 weeks in Paris, France

Now
52 °F

Clear.


Feels Like: 47 °F
Forecast: 45 / 52 °F
Wind: 15 mph from Northwest

Location: Villacoublay

Current Time: Apr 1, 2015 at 4:53:48 PM

Latest Report: Apr 1, 2015 at 4:30 PM


Visibility: N/A

Pressure: 30.33 "Hg

Humidity: 47%

Dew point: 32 °F

Location of ParisLocation

Historic Weather in Paris — Graph

°F

Paris temperature yesterday

Maximum temperature yesterday: 55 °F (at 2:30 AM)
Minimum temperature yesterday: 46 °F (at 11:30 PM)
Average temperature yesterday: 52 °F

Past Weeks' High & Low Weather Summary

 TemperatureHumidityPressure
High63 °F (Mar 17, 3:00 PM)100% (Mar 26, 2:30 PM)30.36 "Hg (Mar 26, 2:30 PM)
Low30 °F (Mar 26, 3:00 AM)32% (Mar 17, 4:30 PM)29.68 "Hg (Mar 30, 2:00 AM)
Average46 °F76%30.04 "Hg
* Reported Mar 17 2:00 PM — Apr 1 3:30 PM, Paris, Weather by CustomWeather, © 2015

Note: Actual official high and low records may vary slightly from our data, if they occured in-between our weather recording intervals... More about our weather records

Advertising

Paris weather history for previous 24 hours

 ConditionsComfort  
Time TempWeatherWind HumidityBarometerVisibility
3:30 PM
Wed, Apr 1
50 °FClear.20 mph47%30.33 "HgN/A
3:00 PM50 °FClear.18 mph43%30.33 "HgN/A
2:30 PM50 °FClear.17 mph47%30.33 "HgN/A
2:00 PM50 °FPartly sunny.14 mph47%30.33 "HgN/A
1:30 PM50 °FScattered clouds.15 mph50%30.36 "HgN/A
1:00 PM48 °FPartly sunny.16 mph50%30.36 "HgN/A
12:30 PM48 °FBroken clouds.16 mph54%30.36 "HgN/A
12:00 PM48 °FPartly sunny.17 mph54%30.36 "HgN/A
11:30 AM46 °FBroken clouds.15 mph62%30.36 "HgN/A
11:00 AM45 °FPartly sunny.16 mph66%30.33 "HgN/A
10:30 AM45 °FPartly sunny.15 mph71%30.33 "HgN/A
10:00 AM43 °FBroken clouds.15 mph76%30.30 "HgN/A
9:30 AM45 °FScattered clouds.13 mph71%30.30 "HgN/A
9:00 AM43 °FPassing clouds.12 mph76%30.30 "HgN/A
8:30 AM41 °FPassing clouds.13 mph81%30.27 "HgN/A
8:00 AM41 °FPassing clouds.13 mph81%30.27 "HgN/A
7:30 AM39 °FPartly cloudy.12 mph81%30.24 "HgN/A
7:00 AM39 °FClear.13 mph87%30.24 "HgN/A
6:30 AM39 °FClear.16 mph87%30.24 "HgN/A
6:00 AM39 °FPartly cloudy.15 mph87%30.21 "HgN/A
5:30 AM41 °FMostly cloudy.15 mph81%30.21 "HgN/A
5:00 AM41 °FLight rain. Passing clouds.21 mph81%30.21 "Hg4 mi
4:30 AM43 °FPassing clouds.16 mph81%30.21 "HgN/A
4:00 AM43 °FPassing clouds.13 mph81%30.21 "HgN/A
3:30 AM45 °FPassing clouds.13 mph76%30.18 "HgN/A
3:00 AM45 °FPartly cloudy.14 mph71%30.21 "HgN/A
2:30 AM45 °FPartly cloudy.16 mph71%30.18 "HgN/A
2:00 AM45 °FPassing clouds.17 mph71%30.18 "HgN/A
1:30 AM45 °FPassing clouds.16 mph76%30.18 "HgN/A
1:00 AM46 °FMostly cloudy.15 mph71%30.18 "HgN/A
12:30 AM46 °FLight rain. Passing clouds.17 mph76%30.18 "HgN/A
12:00 AM46 °FPartly cloudy.15 mph71%30.15 "HgN/A
11:30 PM
Tue, Mar 31
46 °FPartly cloudy.18 mph71%30.15 "HgN/A
11:00 PM48 °FPartly cloudy.17 mph66%30.12 "HgN/A
10:30 PM48 °FPassing clouds.13 mph62%30.12 "HgN/A
10:00 PM48 °FPassing clouds.17 mph62%30.12 "HgN/A
9:30 PM48 °FPassing clouds.13 mph62%30.12 "HgN/A
9:00 PM48 °FClear.9 mph62%30.12 "HgN/A
8:30 PM50 °FClear.18 mph58%30.09 "HgN/A
8:00 PM50 °FClear.17 mph58%30.09 "HgN/A
7:30 PM52 °FClear.22 mph47%30.09 "HgN/A
7:00 PM52 °FClear.23 mph50%30.07 "HgN/A
6:30 PM54 °FClear.23 mph47%30.07 "HgN/A
6:00 PM54 °FClear.25 mph44%30.07 "HgN/A
5:30 PM55 °FClear.28 mph41%30.04 "HgN/A
5:00 PM55 °FClear.26 mph47%30.04 "HgN/A
4:30 PM54 °FScattered clouds.22 mph51%30.04 "HgN/A
4:00 PM54 °FBroken clouds.24 mph51%30.01 "HgN/A
Weather by CustomWeather, © 2015

See weather overviewHow to use our weather pages